Location: Peebles
(55.6412°N, 3.1714°W)
Time: 23:17:10
(UTC+01:00)

DMSP 7529 - Pass Details

Date: 10 July 2022
Orbit: 766 x 803 km, 98.7° (Epoch: 15 August)

Event Time Altitude Azimuth Distance (km) Brightness Sun altitude
Rises 23:58:35 0° 11° (N) 3,322 9.5 -10.3°
Reaches altitude 10° 00:02:55 10° 336° (NNW) 2,392 9.2 -10.5°
Maximum altitude 00:04:13 11° 322° (NW) 2,329 8.7 -10.5°
Drops below altitude 10° 00:05:30 10° 308° (NW) 2,392 8.5 -10.6°
Sets 00:09:51 0° 273° (W) 3,319 8.6 -10.8°
